Time,TemperatureF,DewpointF,PressureIn,WindDirection,WindDirectionDegrees,WindSpeedMPH,WindSpeedGustMPH,Humidity,HourlyPrecipIn,Conditions,Clouds,dailyrainin,SoftwareType,DateUTC
2013-07-01 00:03:00,79.1,68.0,29.67,WSW,248,0.0,0.0,69,0.00,,,0.00,WeatherCatV1.15B25,2013-07-01 07:03:00,
2013-07-01 00:08:00,79.1,68.0,29.67,WSW,248,0.0,0.0,69,0.00,,,0.00,WeatherCatV1.15B25,2013-07-01 07:08:00,
2013-07-01 00:13:00,79.1,68.0,29.67,WSW,248,0.0,0.0,69,0.00,,,0.00,WeatherCatV1.15B25,2013-07-01 07:13:00,
2013-07-01 00:18:00,79.1,68.5,29.67,WSW,248,0.0,0.0,70,0.00,,,0.00,WeatherCatV1.15B25,2013-07-01 07:18:00,
2013-07-01 00:23:00,79.2,68.5,29.67,WSW,248,0.0,0.0,70,0.00,,,0.00,WeatherCatV1.15B25,2013-07-01 07:23:00,
2013-07-01 00:28:00,79.2,68.5,29.68,WSW,248,0.0,1.0,70,0.00,,,0.00,WeatherCatV1.15B25,2013-07-01 07:28:00,
2013-07-01 00:33:00,79.2,68.5,29.68,WSW,248,0.0,0.0,70,0.00,,,0.00,WeatherCatV1.15B25,2013-07-01 07:33:00,
2013-07-01 00:38:00,79.1,68.9,29.67,WSW,248,0.0,0.0,71,0.00,,,0.00,WeatherCatV1.15B25,2013-07-01 07:38:00,
2013-07-01 00:43:00,79.1,68.9,29.68,WSW,248,0.0,0.0,71,0.00,,,0.00,WeatherCatV1.15B25,2013-07-01 07:43:00,
2013-07-01 00:48:00,79.0,68.8,29.68,WSW,248,0.0,0.0,71,0.00,,,0.00,WeatherCatV1.15B25,2013-07-01 07:48:00,
2013-07-01 00:53:00,78.9,68.7,29.68,WSW,248,0.0,0.0,71,0.00,,,0.00,WeatherCatV1.15B25,2013-07-01 07:53:00,
2013-07-01 00:58:00,78.7,68.5,29.68,WSW,248,0.0,0.0,71,0.00,,,0.00,WeatherCatV1.15B25,2013-07-01 07:58:00,
2013-07-01 01:03:00,78.6,68.8,29.68,WSW,248,0.0,0.0,72,0.00,,,0.00,WeatherCatV1.15B25,2013-07-01 08:03:00,
2013-07-01 01:08:00,78.4,68.6,29.68,WSW,248,0.0,0.0,72,0.00,,,0.00,WeatherCatV1.15B25,2013-07-01 08:08:00,
2013-07-01 01:13:00,78.2,68.4,29.68,WSW,248,0.0,0.0,72,0.00,,,0.00,WeatherCatV1.15B25,2013-07-01 08:13:00,
2013-07-01 01:18:00,78.0,68.6,29.68,WSW,248,0.0,0.0,73,0.00,,,0.00,WeatherCatV1.15B25,2013-07-01 08:18:00,
2013-07-01 01:23:00,77.7,68.3,29.68,WSW,248,0.0,0.0,73,0.00,,,0.00,WeatherCatV1.15B25,2013-07-01 08:23:00,
2013-07-01 01:28:00,77.6,68.2,29.68,WSW,248,0.0,0.0,73,0.00,,,0.00,WeatherCatV1.15B25,2013-07-01 08:28:00,
2013-07-01 01:33:00,77.3,68.0,29.68,WSW,248,0.0,0.0,73,0.00,,,0.00,WeatherCatV1.15B25,2013-07-01 08:33:00,
2013-07-01 01:38:00,77.1,68.2,29.68,WSW,248,0.0,0.0,74,0.00,,,0.00,WeatherCatV1.15B25,2013-07-01 08:38:00,
2013-07-01 01:43:00,76.8,68.3,29.68,WSW,248,0.0,0.0,75,0.00,,,0.00,WeatherCatV1.15B25,2013-07-01 08:43:00,
2013-07-01 01:48:00,76.6,68.1,29.68,WSW,248,0.0,0.0,75,0.00,,,0.00,WeatherCatV1.15B25,2013-07-01 08:48:00,
2013-07-01 01:53:00,76.3,67.8,29.68,WSW,248,0.0,0.0,75,0.00,,,0.00,WeatherCatV1.15B25,2013-07-01 08:53:00,
2013-07-01 01:58:00,76.1,67.6,29.68,WSW,248,0.0,0.0,75,0.00,,,0.00,WeatherCatV1.15B25,2013-07-01 08:58:00,
2013-07-01 02:03:00,75.8,67.3,29.68,WSW,248,0.0,0.0,75,0.00,,,0.00,WeatherCatV1.15B25,2013-07-01 09:03:00,
2013-07-01 02:08:00,75.5,67.0,29.68,WSW,248,0.0,1.0,75,0.00,,,0.00,WeatherCatV1.15B25,2013-07-01 09:08:00,
2013-07-01 02:13:00,75.6,67.1,29.68,WSW,248,0.0,0.0,75,0.00,,,0.00,WeatherCatV1.15B25,2013-07-01 09:13:00,
2013-07-01 02:18:00,75.7,67.2,29.68,WSW,248,0.0,0.0,75,0.00,,,0.00,WeatherCatV1.15B25,2013-07-01 09:18:00,
2013-07-01 02:23:00,75.7,67.2,29.68,WSW,248,0.0,0.0,75,0.00,,,0.00,WeatherCatV1.15B25,2013-07-01 09:23:00,
2013-07-01 02:28:00,75.6,67.1,29.68,WSW,248,0.0,0.0,75,0.00,,,0.00,WeatherCatV1.15B25,2013-07-01 09:28:00,
2013-07-01 02:33:00,75.5,67.0,29.68,WSW,248,0.0,0.0,75,0.00,,,0.00,WeatherCatV1.15B25,2013-07-01 09:33:00,
2013-07-01 02:38:00,75.4,66.9,29.68,WSW,248,0.0,0.0,75,0.00,,,0.00,WeatherCatV1.15B25,2013-07-01 09:38:00,
2013-07-01 02:43:00,75.2,67.1,29.68,WSW,248,0.0,0.0,76,0.00,,,0.00,WeatherCatV1.15B25,2013-07-01 09:43:00,
2013-07-01 02:48:00,75.0,66.5,29.68,WSW,248,0.0,0.0,75,0.00,,,0.00,WeatherCatV1.15B25,2013-07-01 09:48:00,
2013-07-01 02:53:00,74.8,66.7,29.68,WSW,248,0.0,0.0,76,0.00,,,0.00,WeatherCatV1.15B25,2013-07-01 09:53:00,
2013-07-01 02:58:00,74.5,66.4,29.68,WSW,248,0.0,0.0,76,0.00,,,0.00,WeatherCatV1.15B25,2013-07-01 09:58:00,
2013-07-01 03:03:00,74.3,66.2,29.68,WSW,248,0.0,0.0,76,0.00,,,0.00,WeatherCatV1.15B25,2013-07-01 10:03:00,
2013-07-01 03:08:00,74.0,65.9,29.68,WSW,248,0.0,0.0,76,0.00,,,0.00,WeatherCatV1.15B25,2013-07-01 10:08:00,
2013-07-01 03:13:00,73.8,65.7,29.68,WSW,248,0.0,0.0,76,0.00,,,0.00,WeatherCatV1.15B25,2013-07-01 10:13:00,
2013-07-01 03:18:00,73.7,65.7,29.68,WSW,248,0.0,0.0,76,0.00,,,0.00,WeatherCatV1.15B25,2013-07-01 10:18:00,
2013-07-01 03:23:00,73.4,65.4,29.68,WSW,248,0.0,0.0,76,0.00,,,0.00,WeatherCatV1.15B25,2013-07-01 10:23:00,
2013-07-01 03:28:00,73.2,65.5,29.68,WSW,248,0.0,0.0,77,0.00,,,0.00,WeatherCatV1.15B25,2013-07-01 10:28:00,
2013-07-01 03:33:00,73.0,65.0,29.69,WSW,248,0.0,0.0,76,0.00,,,0.00,WeatherCatV1.15B25,2013-07-01 10:33:00,
2013-07-01 03:38:00,72.8,64.8,29.68,WSW,248,0.0,0.0,76,0.00,,,0.00,WeatherCatV1.15B25,2013-07-01 10:38:00,
2013-07-01 03:43:00,72.6,65.0,29.68,WSW,248,0.0,0.0,77,0.00,,,0.00,WeatherCatV1.15B25,2013-07-01 10:43:00,
2013-07-01 03:48:00,72.4,64.8,29.68,WSW,248,0.0,0.0,77,0.00,,,0.00,WeatherCatV1.15B25,2013-07-01 10:48:00,
2013-07-01 03:53:00,72.2,64.6,29.68,WSW,248,0.0,0.0,77,0.00,,,0.00,WeatherCatV1.15B25,2013-07-01 10:53:00,
2013-07-01 03:58:00,72.1,64.5,29.68,WSW,248,0.0,0.0,77,0.00,,,0.00,WeatherCatV1.15B25,2013-07-01 10:58:00,
2013-07-01 04:03:00,72.0,64.4,29.68,WSW,248,0.0,0.0,77,0.00,,,0.00,WeatherCatV1.15B25,2013-07-01 11:03:00,
2013-07-01 04:08:00,71.9,64.3,29.68,WSW,248,0.0,0.0,77,0.00,,,0.00,WeatherCatV1.15B25,2013-07-01 11:08:00,
2013-07-01 04:13:00,71.9,63.9,29.68,WSW,248,0.0,0.0,76,0.00,,,0.00,WeatherCatV1.15B25,2013-07-01 11:13:00,
2013-07-01 04:18:00,71.9,63.9,29.68,WSW,248,0.0,0.0,76,0.00,,,0.00,WeatherCatV1.15B25,2013-07-01 11:18:00,
2013-07-01 04:23:00,71.9,63.9,29.68,WSW,248,0.0,0.0,76,0.00,,,0.00,WeatherCatV1.15B25,2013-07-01 11:23:00,
2013-07-01 04:28:00,71.9,63.5,29.68,WSW,248,0.0,0.0,75,0.00,,,0.00,WeatherCatV1.15B25,2013-07-01 11:28:00,
2013-07-01 04:33:00,71.9,63.5,29.69,WSW,248,0.0,0.0,75,0.00,,,0.00,WeatherCatV1.15B25,2013-07-01 11:33:00,
2013-07-01 04:38:00,71.9,63.5,29.69,WSW,248,0.0,0.0,75,0.00,,,0.00,WeatherCatV1.15B25,2013-07-01 11:38:00,
2013-07-01 04:43:00,71.9,63.5,29.69,WSW,248,0.0,0.0,75,0.00,,,0.00,WeatherCatV1.15B25,2013-07-01 11:43:00,
2013-07-01 04:48:00,71.7,63.3,29.69,WSW,248,0.0,0.0,75,0.00,,,0.00,WeatherCatV1.15B25,2013-07-01 11:48:00,
2013-07-01 04:53:00,71.6,63.2,29.69,WSW,248,0.0,0.0,75,0.00,,,0.00,WeatherCatV1.15B25,2013-07-01 11:53:00,
2013-07-01 04:58:00,71.3,63.0,29.69,WSW,248,0.0,0.0,75,0.00,,,0.00,WeatherCatV1.15B25,2013-07-01 11:58:00,
2013-07-01 05:03:00,71.2,63.6,29.69,WSW,248,0.0,0.0,77,0.00,,,0.00,WeatherCatV1.15B25,2013-07-01 12:03:00,
2013-07-01 05:08:00,71.0,63.4,29.70,WSW,248,0.0,0.0,77,0.00,,,0.00,WeatherCatV1.15B25,2013-07-01 12:08:00,
2013-07-01 05:13:00,70.7,63.5,29.70,WSW,248,0.0,0.0,78,0.00,,,0.00,WeatherCatV1.15B25,2013-07-01 12:13:00,
2013-07-01 05:18:00,70.5,63.3,29.70,WSW,248,0.0,0.0,78,0.00,,,0.00,WeatherCatV1.15B25,2013-07-01 12:18:00,
2013-07-01 05:23:00,70.2,62.6,29.70,WSW,248,0.0,0.0,77,0.00,,,0.00,WeatherCatV1.15B25,2013-07-01 12:23:00,
2013-07-01 05:28:00,70.0,62.8,29.70,WSW,248,0.0,0.0,78,0.00,,,0.00,WeatherCatV1.15B25,2013-07-01 12:28:00,
2013-07-01 05:33:00,69.8,63.3,29.70,WSW,248,0.0,0.0,80,0.00,,,0.00,WeatherCatV1.15B25,2013-07-01 12:33:00,
2013-07-01 05:38:00,69.6,63.1,29.70,WSW,248,0.0,0.0,80,0.00,,,0.00,WeatherCatV1.15B25,2013-07-01 12:38:00,
2013-07-01 05:43:00,69.3,62.9,29.70,WSW,248,0.0,0.0,80,0.00,,,0.00,WeatherCatV1.15B25,2013-07-01 12:43:00,
2013-07-01 05:48:00,69.1,63.0,29.70,WSW,248,0.0,0.0,81,0.00,,,0.00,WeatherCatV1.15B25,2013-07-01 12:48:00,
2013-07-01 05:53:00,68.9,62.8,29.71,WSW,248,0.0,0.0,81,0.00,,,0.00,WeatherCatV1.15B25,2013-07-01 12:53:00,
2013-07-01 05:58:00,68.6,62.5,29.71,WSW,248,0.0,0.0,81,0.00,,,0.00,WeatherCatV1.15B25,2013-07-01 12:58:00,
2013-07-01 06:03:00,68.4,62.7,29.71,WSW,248,0.0,0.0,82,0.00,,,0.00,WeatherCatV1.15B25,2013-07-01 13:03:00,
2013-07-01 06:08:00,68.3,62.2,29.71,WSW,248,0.0,0.0,81,0.00,,,0.00,WeatherCatV1.15B25,2013-07-01 13:08:00,
2013-07-01 06:13:00,68.2,62.5,29.71,WSW,248,0.0,0.0,82,0.00,,,0.00,WeatherCatV1.15B25,2013-07-01 13:13:00,
2013-07-01 06:18:00,68.2,62.5,29.72,WSW,248,0.0,0.0,82,0.00,,,0.00,WeatherCatV1.15B25,2013-07-01 13:18:00,
2013-07-01 06:23:00,68.1,62.7,29.72,WSW,248,0.0,0.0,83,0.00,,,0.00,WeatherCatV1.15B25,2013-07-01 13:23:00,
2013-07-01 06:28:00,68.2,62.8,29.72,WSW,248,0.0,0.0,83,0.00,,,0.00,WeatherCatV1.15B25,2013-07-01 13:28:00,
2013-07-01 06:33:00,68.5,63.5,29.73,WSW,248,0.0,0.0,84,0.00,,,0.00,WeatherCatV1.15B25,2013-07-01 13:33:00,
2013-07-01 06:38:00,68.6,63.6,29.73,WSW,248,0.0,0.0,84,0.00,,,0.00,WeatherCatV1.15B25,2013-07-01 13:38:00,
2013-07-01 06:43:00,68.8,63.8,29.73,WSW,248,0.0,0.0,84,0.00,,,0.00,WeatherCatV1.15B25,2013-07-01 13:43:00,
2013-07-01 06:48:00,69.0,63.6,29.73,WSW,248,0.0,0.0,83,0.00,,,0.00,WeatherCatV1.15B25,2013-07-01 13:48:00,
2013-07-01 06:53:00,69.3,63.6,29.72,WSW,248,0.0,0.0,82,0.00,,,0.00,WeatherCatV1.15B25,2013-07-01 13:53:00,
2013-07-01 06:58:00,69.8,63.7,29.72,WSW,248,0.0,0.0,81,0.00,,,0.00,WeatherCatV1.15B25,2013-07-01 13:58:00,
2013-07-01 07:03:00,70.4,63.6,29.72,WSW,248,0.0,1.0,79,0.00,,,0.00,WeatherCatV1.15B25,2013-07-01 14:03:00,
2013-07-01 07:08:00,71.2,64.0,29.72,WSW,248,0.0,1.0,78,0.00,,,0.00,WeatherCatV1.15B25,2013-07-01 14:08:00,
2013-07-01 07:13:00,71.7,63.7,29.73,WSW,248,0.0,2.0,76,0.00,,,0.00,WeatherCatV1.15B25,2013-07-01 14:13:00,
2013-07-01 07:18:00,72.2,63.4,29.72,WSW,248,2.0,2.0,74,0.00,,,0.00,WeatherCatV1.15B25,2013-07-01 14:18:00,
2013-07-01 07:23:00,72.7,63.5,29.73,WSW,248,0.0,1.0,73,0.00,,,0.00,WeatherCatV1.15B25,2013-07-01 14:23:00,
2013-07-01 07:28:00,73.0,63.4,29.74,WSW,248,0.0,0.0,72,0.00,,,0.00,WeatherCatV1.15B25,2013-07-01 14:28:00,
2013-07-01 07:33:00,73.3,64.1,29.74,WSW,248,0.0,0.0,73,0.00,,,0.00,WeatherCatV1.15B25,2013-07-01 14:33:00,
2013-07-01 07:38:00,73.6,64.8,29.73,WSW,248,0.0,0.0,74,0.00,,,0.00,WeatherCatV1.15B25,2013-07-01 14:38:00,
2013-07-01 07:43:00,74.0,64.8,29.73,WSW,248,0.0,0.0,73,0.00,,,0.00,WeatherCatV1.15B25,2013-07-01 14:43:00,
2013-07-01 07:48:00,74.4,64.8,29.74,WSW,248,0.0,0.0,72,0.00,,,0.00,WeatherCatV1.15B25,2013-07-01 14:48:00,
2013-07-01 07:53:00,75.0,65.3,29.74,WSW,248,0.0,0.0,72,0.00,,,0.00,WeatherCatV1.15B25,2013-07-01 14:53:00,
2013-07-01 07:58:00,75.6,65.1,29.74,WSW,248,0.0,0.0,70,0.00,,,0.00,WeatherCatV1.15B25,2013-07-01 14:58:00,
2013-07-01 08:03:00,76.3,65.8,29.74,WSW,248,0.0,0.0,70,0.00,,,0.00,WeatherCatV1.15B25,2013-07-01 15:03:00,
2013-07-01 08:09:00,77.0,65.6,29.74,WSW,248,1.0,2.0,68,0.00,,,0.00,WeatherCatV1.15B25,2013-07-01 15:09:00,
2013-07-01 08:14:00,77.6,65.8,29.74,WSW,248,0.0,1.0,67,0.00,,,0.00,WeatherCatV1.15B25,2013-07-01 15:14:00,
2013-07-01 08:19:00,78.4,66.9,29.73,WSW,248,0.0,1.0,68,0.00,,,0.00,WeatherCatV1.15B25,2013-07-01 15:19:00,
2013-07-01 08:24:00,79.2,66.8,29.73,WSW,248,0.0,1.0,66,0.00,,,0.00,WeatherCatV1.15B25,2013-07-01 15:24:00,
2013-07-01 08:29:00,79.8,66.5,29.74,WSW,248,0.0,2.0,64,0.00,,,0.00,WeatherCatV1.15B25,2013-07-01 15:29:00,
2013-07-01 08:34:00,80.5,66.7,29.74,WSW,248,0.0,1.0,63,0.00,,,0.00,WeatherCatV1.15B25,2013-07-01 15:34:00,
2013-07-01 08:39:00,80.9,66.2,29.74,WSW,248,0.0,0.0,61,0.00,,,0.00,WeatherCatV1.15B25,2013-07-01 15:39:00,
2013-07-01 08:44:00,81.4,67.1,29.74,WSW,248,1.0,1.0,62,0.00,,,0.00,WeatherCatV1.15B25,2013-07-01 15:44:00,
2013-07-01 08:49:00,81.9,66.6,29.74,WSW,248,0.0,1.0,60,0.00,,,0.00,WeatherCatV1.15B25,2013-07-01 15:49:00,
2013-07-01 08:54:00,82.4,66.6,29.74,West,267,0.0,2.0,59,0.00,,,0.00,WeatherCatV1.15B25,2013-07-01 15:54:00,
2013-07-01 08:59:00,82.8,67.0,29.74,West,269,0.0,1.0,59,0.00,,,0.00,WeatherCatV1.15B25,2013-07-01 15:59:00,
2013-07-01 09:04:00,83.4,67.5,29.74,West,269,0.0,1.0,59,0.00,,,0.00,WeatherCatV1.15B25,2013-07-01 16:04:00,
2013-07-01 09:09:00,83.9,68.5,29.74,West,268,0.0,0.0,60,0.00,,,0.00,WeatherCatV1.15B25,2013-07-01 16:09:00,
2013-07-01 09:14:00,84.5,68.1,29.74,West,269,0.0,0.0,58,0.00,,,0.00,WeatherCatV1.15B25,2013-07-01 16:14:00,
2013-07-01 09:19:00,84.9,67.4,29.74,West,267,2.0,2.0,56,0.00,,,0.00,WeatherCatV1.15B25,2013-07-01 16:19:00,
2013-07-01 09:24:00,85.2,68.2,29.74,West,267,0.0,1.0,57,0.00,,,0.00,WeatherCatV1.15B25,2013-07-01 16:24:00,
2013-07-01 09:29:00,85.6,68.6,29.74,West,267,0.0,1.0,57,0.00,,,0.00,WeatherCatV1.15B25,2013-07-01 16:29:00,
2013-07-01 09:34:00,86.0,67.9,29.74,West,270,0.0,1.0,55,0.00,,,0.00,WeatherCatV1.15B25,2013-07-01 16:34:00,
2013-07-01 09:39:00,86.5,69.4,29.74,West,270,0.0,1.0,57,0.00,,,0.00,WeatherCatV1.15B25,2013-07-01 16:39:00,
2013-07-01 09:44:00,86.8,68.1,29.74,West,275,0.0,2.0,54,0.00,,,0.00,WeatherCatV1.15B25,2013-07-01 16:44:00,
2013-07-01 09:49:00,87.2,66.8,29.74,West,277,0.0,1.0,51,0.00,,,0.00,WeatherCatV1.15B25,2013-07-01 16:49:00,
2013-07-01 09:54:00,87.3,67.5,29.74,WNW,284,0.0,0.0,52,0.00,,,0.00,WeatherCatV1.15B25,2013-07-01 16:54:00,
2013-07-01 09:59:00,87.7,67.9,29.74,WNW,284,1.0,1.0,52,0.00,,,0.00,WeatherCatV1.15B25,2013-07-01 16:59:00,
2013-07-01 10:04:00,88.0,69.2,29.74,WNW,283,0.0,1.0,54,0.00,,,0.00,WeatherCatV1.15B25,2013-07-01 17:04:00,
2013-07-01 10:09:00,88.4,67.4,29.74,West,269,0.0,3.0,50,0.00,,,0.00,WeatherCatV1.15B25,2013-07-01 17:09:00,
2013-07-01 10:14:00,88.6,67.0,29.74,West,269,0.0,0.0,49,0.00,,,0.00,WeatherCatV1.15B25,2013-07-01 17:14:00,
2013-07-01 10:19:00,88.9,68.4,29.75,West,270,0.0,0.0,51,0.00,,,0.00,WeatherCatV1.15B25,2013-07-01 17:19:00,
2013-07-01 10:24:00,89.2,68.1,29.75,WSW,246,0.0,1.0,50,0.00,,,0.00,WeatherCatV1.15B25,2013-07-01 17:24:00,
2013-07-01 10:29:00,89.4,67.7,29.75,WSW,246,0.0,1.0,49,0.00,,,0.00,WeatherCatV1.15B25,2013-07-01 17:29:00,
2013-07-01 10:34:00,89.5,68.4,29.75,WSW,245,0.0,0.0,50,0.00,,,0.00,WeatherCatV1.15B25,2013-07-01 17:34:00,
2013-07-01 10:39:00,90.1,68.9,29.75,WSW,246,0.0,1.0,50,0.00,,,0.00,WeatherCatV1.15B25,2013-07-01 17:39:00,
2013-07-01 10:44:00,90.5,69.3,29.75,WSW,246,0.0,1.0,50,0.00,,,0.00,WeatherCatV1.15B25,2013-07-01 17:44:00,
2013-07-01 10:49:00,91.0,69.1,29.75,WSW,246,0.0,0.0,49,0.00,,,0.00,WeatherCatV1.15B25,2013-07-01 17:49:00,
2013-07-01 10:54:00,91.3,70.0,29.75,WSW,245,0.0,1.0,50,0.00,,,0.00,WeatherCatV1.15B25,2013-07-01 17:54:00,
2013-07-01 10:59:00,91.6,69.7,29.75,WSW,245,0.0,0.0,49,0.00,,,0.00,WeatherCatV1.15B25,2013-07-01 17:59:00,
2013-07-01 11:04:00,92.0,70.1,29.75,WSW,246,0.0,0.0,49,0.00,,,0.00,WeatherCatV1.15B25,2013-07-01 18:04:00,
2013-07-01 11:09:00,92.4,69.8,29.75,WSW,245,0.0,0.0,48,0.00,,,0.00,WeatherCatV1.15B25,2013-07-01 18:09:00,
2013-07-01 11:14:00,93.1,71.7,29.75,WSW,246,0.0,0.0,50,0.00,,,0.00,WeatherCatV1.15B25,2013-07-01 18:14:00,
2013-07-01 11:19:00,93.7,72.2,29.76,WSW,246,0.0,0.0,50,0.00,,,0.00,WeatherCatV1.15B25,2013-07-01 18:19:00,
2013-07-01 11:24:00,93.5,71.4,29.76,SSW,203,2.0,2.0,49,0.00,,,0.00,WeatherCatV1.15B25,2013-07-01 18:24:00,
2013-07-01 11:29:00,93.1,71.7,29.76,East,98,0.0,3.0,50,0.00,,,0.00,WeatherCatV1.15B25,2013-07-01 18:29:00,
2013-07-01 11:34:00,92.8,71.4,29.76,East,98,0.0,1.0,50,0.00,,,0.00,WeatherCatV1.15B25,2013-07-01 18:34:00,
2013-07-01 11:39:00,93.0,71.6,29.76,East,101,0.0,1.0,50,0.00,,,0.00,WeatherCatV1.15B25,2013-07-01 18:39:00,
2013-07-01 11:44:00,93.5,70.8,29.76,ESE,122,0.0,3.0,48,0.00,,,0.00,WeatherCatV1.15B25,2013-07-01 18:44:00,
2013-07-01 11:49:00,94.0,72.5,29.76,ESE,122,0.0,1.0,50,0.00,,,0.00,WeatherCatV1.15B25,2013-07-01 18:49:00,
2013-07-01 11:54:00,94.2,71.4,29.76,ESE,111,1.0,4.0,48,0.00,,,0.00,WeatherCatV1.15B25,2013-07-01 18:54:00,
2013-07-01 11:59:00,94.4,72.2,29.76,ESE,111,0.0,1.0,49,0.00,,,0.00,WeatherCatV1.15B25,2013-07-01 18:59:00,
2013-07-01 12:04:00,94.4,71.0,29.76,ESE,111,0.0,0.0,47,0.00,,,0.00,WeatherCatV1.15B25,2013-07-01 19:04:00,
2013-07-01 12:09:00,94.2,73.2,29.76,ESE,110,0.0,1.0,51,0.00,,,0.00,WeatherCatV1.15B25,2013-07-01 19:09:00,
2013-07-01 12:14:00,93.7,72.2,29.76,ESE,111,0.0,0.0,50,0.00,,,0.00,WeatherCatV1.15B25,2013-07-01 19:14:00,
2013-07-01 12:19:00,93.2,71.7,29.76,ESE,110,0.0,1.0,50,0.00,,,0.00,WeatherCatV1.15B25,2013-07-01 19:19:00,
2013-07-01 12:24:00,93.2,72.9,29.76,ESE,110,0.0,0.0,52,0.00,,,0.00,WeatherCatV1.15B25,2013-07-01 19:24:00,
2013-07-01 12:29:00,93.3,73.6,29.75,ESE,111,1.0,1.0,53,0.00,,,0.00,WeatherCatV1.15B25,2013-07-01 19:29:00,
2013-07-01 12:34:00,93.3,71.8,29.75,ESE,111,1.0,3.0,50,0.00,,,0.00,WeatherCatV1.15B25,2013-07-01 19:34:00,
2013-07-01 12:39:00,93.4,71.3,29.75,SW,235,0.0,1.0,49,0.00,,,0.00,WeatherCatV1.15B25,2013-07-01 19:39:00,
2013-07-01 12:44:00,93.6,72.1,29.76,SW,235,0.0,0.0,50,0.00,,,0.00,WeatherCatV1.15B25,2013-07-01 19:44:00,
2013-07-01 12:49:00,93.9,73.0,29.76,SW,227,0.0,0.0,51,0.00,,,0.00,WeatherCatV1.15B25,2013-07-01 19:49:00,
2013-07-01 12:54:00,94.2,70.2,29.75,SW,226,0.0,2.0,46,0.00,,,0.00,WeatherCatV1.15B25,2013-07-01 19:54:00,
2013-07-01 12:59:00,94.3,70.3,29.75,SW,226,0.0,1.0,46,0.00,,,0.00,WeatherCatV1.15B25,2013-07-01 19:59:00,
2013-07-01 13:04:00,94.3,72.8,29.75,WSW,244,0.0,1.0,50,0.00,,,0.00,WeatherCatV1.15B25,2013-07-01 20:04:00,
2013-07-01 13:09:00,94.1,72.0,29.74,WSW,244,0.0,0.0,49,0.00,,,0.00,WeatherCatV1.15B25,2013-07-01 20:09:00,
2013-07-01 13:14:00,93.9,71.2,29.74,WSW,244,0.0,4.0,48,0.00,,,0.00,WeatherCatV1.15B25,2013-07-01 20:14:00,
2013-07-01 13:19:00,93.9,74.7,29.73,WSW,244,0.0,0.0,54,0.00,,,0.00,WeatherCatV1.15B25,2013-07-01 20:19:00,
2013-07-01 13:24:00,93.8,73.5,29.73,WSW,254,0.0,2.0,52,0.00,,,0.00,WeatherCatV1.15B25,2013-07-01 20:24:00,
2013-07-01 13:29:00,93.6,73.8,29.72,NNW,330,0.0,1.0,53,0.00,,,0.00,WeatherCatV1.15B25,2013-07-01 20:29:00,
2013-07-01 13:34:00,93.4,75.3,29.72,NNW,331,0.0,1.0,56,0.00,,,0.00,WeatherCatV1.15B25,2013-07-01 20:34:00,
2013-07-01 13:39:00,93.2,75.1,29.71,NNW,333,0.0,4.0,56,0.00,,,0.00,WeatherCatV1.15B25,2013-07-01 20:39:00,
2013-07-01 13:44:00,93.2,75.1,29.72,NNW,333,0.0,3.0,56,0.00,,,0.00,WeatherCatV1.15B25,2013-07-01 20:44:00,
2013-07-01 13:49:00,93.0,73.8,29.72,NNE,25,1.0,2.0,54,0.00,,,0.00,WeatherCatV1.15B25,2013-07-01 20:49:00,
2013-07-01 13:54:00,93.0,73.8,29.72,NNW,344,0.0,1.0,54,0.00,,,0.00,WeatherCatV1.15B25,2013-07-01 20:54:00,
2013-07-01 13:59:00,93.1,72.8,29.72,North,355,1.0,3.0,52,0.00,,,0.00,WeatherCatV1.15B25,2013-07-01 20:59:00,
2013-07-01 14:04:00,93.1,75.6,29.73,NNE,15,0.0,1.0,57,0.00,,,0.00,WeatherCatV1.15B25,2013-07-01 21:04:00,
2013-07-01 14:09:00,93.3,75.7,29.72,East,88,0.0,1.0,57,0.00,,,0.00,WeatherCatV1.15B25,2013-07-01 21:09:00,
2013-07-01 14:14:00,93.7,77.2,29.72,NE,44,0.0,4.0,59,0.00,,,0.00,WeatherCatV1.15B25,2013-07-01 21:14:00,
2013-07-01 14:19:00,93.9,75.8,29.73,ENE,64,0.0,4.0,56,0.00,,,0.00,WeatherCatV1.15B25,2013-07-01 21:19:00,
2013-07-01 14:24:00,93.8,75.7,29.72,ENE,65,0.0,1.0,56,0.00,,,0.00,WeatherCatV1.15B25,2013-07-01 21:24:00,
2013-07-01 14:29:00,94.1,77.5,29.72,SE,136,0.0,4.0,59,0.00,,,0.00,WeatherCatV1.15B25,2013-07-01 21:29:00,
2013-07-01 14:34:00,94.5,76.3,29.72,NE,56,0.0,3.0,56,0.00,,,0.00,WeatherCatV1.15B25,2013-07-01 21:34:00,
2013-07-01 14:39:00,94.4,76.8,29.73,ENE,59,0.0,2.0,57,0.00,,,0.00,WeatherCatV1.15B25,2013-07-01 21:39:00,
2013-07-01 14:44:00,94.5,75.2,29.73,NE,50,1.0,4.0,54,0.00,,,0.00,WeatherCatV1.15B25,2013-07-01 21:44:00,
2013-07-01 14:49:00,94.7,77.0,29.72,ENE,65,2.0,3.0,57,0.00,,,0.00,WeatherCatV1.15B25,2013-07-01 21:49:00,
2013-07-01 14:54:00,94.8,74.9,29.72,NE,49,0.0,3.0,53,0.00,,,0.00,WeatherCatV1.15B25,2013-07-01 21:54:00,
2013-07-01 14:59:00,94.8,73.8,29.72,NE,45,1.0,4.0,51,0.00,,,0.00,WeatherCatV1.15B25,2013-07-01 21:59:00,
2013-07-01 15:04:00,94.7,74.3,29.72,NE,40,0.0,3.0,52,0.00,,,0.00,WeatherCatV1.15B25,2013-07-01 22:04:00,
2013-07-01 15:09:00,94.8,74.9,29.72,NNE,12,0.0,4.0,53,0.00,,,0.00,WeatherCatV1.15B25,2013-07-01 22:09:00,
2013-07-01 15:14:00,94.9,75.6,29.72,NNE,12,0.0,1.0,54,0.00,,,0.00,WeatherCatV1.15B25,2013-07-01 22:14:00,
2013-07-01 15:19:00,95.3,74.3,29.71,NNE,12,1.0,1.0,51,0.00,,,0.00,WeatherCatV1.15B25,2013-07-01 22:19:00,
2013-07-01 15:24:00,95.8,75.3,29.71,North,11,0.0,0.0,52,0.00,,,0.00,WeatherCatV1.15B25,2013-07-01 22:24:00,
2013-07-01 15:29:00,96.3,75.2,29.71,North,10,0.0,3.0,51,0.00,,,0.00,WeatherCatV1.15B25,2013-07-01 22:29:00,
2013-07-01 15:34:00,96.4,75.3,29.71,North,10,0.0,1.0,51,0.00,,,0.00,WeatherCatV1.15B25,2013-07-01 22:34:00,
2013-07-01 15:39:00,96.9,77.4,29.70,North,5,0.0,0.0,54,0.00,,,0.00,WeatherCatV1.15B25,2013-07-01 22:39:00,
2013-07-01 15:44:00,97.6,77.5,29.70,WSW,243,0.0,2.0,53,0.00,,,0.00,WeatherCatV1.15B25,2013-07-01 22:44:00,
2013-07-01 15:49:00,97.9,76.6,29.70,WSW,241,0.0,3.0,51,0.00,,,0.00,WeatherCatV1.15B25,2013-07-01 22:49:00,
2013-07-01 15:54:00,97.8,77.1,29.70,WSW,244,6.0,6.0,52,0.00,,,0.00,WeatherCatV1.15B25,2013-07-01 22:54:00,
2013-07-01 15:59:00,97.3,76.1,29.69,WSW,241,0.0,4.0,51,0.00,,,0.00,WeatherCatV1.15B25,2013-07-01 22:59:00,
2013-07-01 16:04:00,97.1,77.1,29.70,WSW,244,0.0,2.0,53,0.00,,,0.00,WeatherCatV1.15B25,2013-07-01 23:04:00,
2013-07-01 16:09:00,96.8,76.8,29.70,WSW,244,0.0,0.0,53,0.00,,,0.00,WeatherCatV1.15B25,2013-07-01 23:09:00,
2013-07-01 16:14:00,96.4,75.3,29.71,NW,321,0.0,3.0,51,0.00,,,0.00,WeatherCatV1.15B25,2013-07-01 23:14:00,
2013-07-01 16:19:00,96.2,75.7,29.70,NW,321,0.0,0.0,52,0.00,,,0.00,WeatherCatV1.15B25,2013-07-01 23:19:00,
2013-07-01 16:24:00,96.3,76.3,29.70,NW,319,0.0,1.0,53,0.00,,,0.00,WeatherCatV1.15B25,2013-07-01 23:24:00,
2013-07-01 16:29:00,96.3,76.3,29.70,NW,320,0.0,1.0,53,0.00,,,0.00,WeatherCatV1.15B25,2013-07-01 23:29:00,
2013-07-01 16:34:00,96.4,76.4,29.69,NW,321,0.0,0.0,53,0.00,,,0.00,WeatherCatV1.15B25,2013-07-01 23:34:00,
2013-07-01 16:39:00,96.4,77.0,29.68,NW,323,1.0,3.0,54,0.00,,,0.00,WeatherCatV1.15B25,2013-07-01 23:39:00,
2013-07-01 16:44:00,96.2,76.8,29.68,NNW,329,0.0,2.0,54,0.00,,,0.00,WeatherCatV1.15B25,2013-07-01 23:44:00,
2013-07-01 16:49:00,95.9,77.6,29.67,NW,326,0.0,0.0,56,0.00,,,0.00,WeatherCatV1.15B25,2013-07-01 23:49:00,
2013-07-01 16:54:00,95.7,76.9,29.67,NW,326,0.0,4.0,55,0.00,,,0.00,WeatherCatV1.15B25,2013-07-01 23:54:00,
2013-07-01 16:59:00,95.6,77.9,29.67,NW,326,0.0,1.0,57,0.00,,,0.00,WeatherCatV1.15B25,2013-07-01 23:59:00,
2013-07-01 17:04:00,95.5,78.3,29.67,NW,326,0.0,1.0,58,0.00,,,0.00,WeatherCatV1.15B25,2013-07-02 00:04:00,
2013-07-01 17:09:00,95.7,78.5,29.66,NW,326,1.0,1.0,58,0.00,,,0.00,WeatherCatV1.15B25,2013-07-02 00:09:00,
2013-07-01 17:14:00,96.4,78.6,29.66,NNW,327,0.0,1.0,57,0.00,,,0.00,WeatherCatV1.15B25,2013-07-02 00:14:00,
2013-07-01 17:19:00,97.0,79.2,29.65,NNW,328,0.0,1.0,57,0.00,,,0.00,WeatherCatV1.15B25,2013-07-02 00:19:00,
2013-07-01 17:24:00,97.5,79.7,29.65,SW,231,2.0,2.0,57,0.00,,,0.00,WeatherCatV1.15B25,2013-07-02 00:24:00,
2013-07-01 17:29:00,98.1,78.0,29.65,WSW,242,0.0,1.0,53,0.00,,,0.00,WeatherCatV1.15B25,2013-07-02 00:29:00,
2013-07-01 17:34:00,98.5,77.2,29.66,WSW,244,0.0,0.0,51,0.00,,,0.00,WeatherCatV1.15B25,2013-07-02 00:34:00,
2013-07-01 17:39:00,98.8,76.3,29.66,WSW,244,0.0,2.0,49,0.00,,,0.00,WeatherCatV1.15B25,2013-07-02 00:39:00,
2013-07-01 17:44:00,99.1,76.5,29.66,WSW,237,1.0,4.0,49,0.00,,,0.00,WeatherCatV1.15B25,2013-07-02 00:44:00,
2013-07-01 17:49:00,99.2,75.4,29.66,WSW,246,0.0,2.0,47,0.00,,,0.00,WeatherCatV1.15B25,2013-07-02 00:49:00,
2013-07-01 17:54:00,99.3,76.1,29.66,WSW,246,0.0,0.0,48,0.00,,,0.00,WeatherCatV1.15B25,2013-07-02 00:54:00,
2013-07-01 17:59:00,99.4,74.9,29.67,WSW,250,0.0,3.0,46,0.00,,,0.00,WeatherCatV1.15B25,2013-07-02 00:59:00,
2013-07-01 18:04:00,99.6,73.7,29.67,WNW,288,0.0,1.0,44,0.00,,,0.00,WeatherCatV1.15B25,2013-07-02 01:04:00,
2013-07-01 18:09:00,99.7,75.2,29.67,WNW,288,0.0,0.0,46,0.00,,,0.00,WeatherCatV1.15B25,2013-07-02 01:09:00,
2013-07-01 18:14:00,99.8,74.6,29.67,WNW,288,0.0,1.0,45,0.00,,,0.00,WeatherCatV1.15B25,2013-07-02 01:14:00,
2013-07-01 18:19:00,99.8,74.6,29.67,WNW,288,0.0,0.0,45,0.00,,,0.00,WeatherCatV1.15B25,2013-07-02 01:19:00,
2013-07-01 18:24:00,99.7,73.8,29.67,WNW,288,0.0,1.0,44,0.00,,,0.00,WeatherCatV1.15B25,2013-07-02 01:24:00,
2013-07-01 18:29:00,99.5,73.7,29.67,WNW,288,0.0,1.0,44,0.00,,,0.00,WeatherCatV1.15B25,2013-07-02 01:29:00,
2013-07-01 18:34:00,99.3,72.8,29.67,WNW,288,0.0,0.0,43,0.00,,,0.00,WeatherCatV1.15B25,2013-07-02 01:34:00,
2013-07-01 18:39:00,99.1,70.5,29.67,WNW,288,0.0,0.0,40,0.00,,,0.00,WeatherCatV1.15B25,2013-07-02 01:39:00,
2013-07-01 18:44:00,98.8,70.9,29.67,WNW,288,0.0,0.0,41,0.00,,,0.00,WeatherCatV1.15B25,2013-07-02 01:44:00,
2013-07-01 18:49:00,98.5,69.9,29.67,WNW,288,0.0,0.0,40,0.00,,,0.00,WeatherCatV1.15B25,2013-07-02 01:49:00,
2013-07-01 18:54:00,98.3,70.5,29.67,WNW,288,0.0,1.0,41,0.00,,,0.00,WeatherCatV1.15B25,2013-07-02 01:54:00,
2013-07-01 18:59:00,97.8,70.8,29.67,WNW,288,0.0,1.0,42,0.00,,,0.00,WeatherCatV1.15B25,2013-07-02 01:59:00,
2013-07-01 19:04:00,97.1,70.8,29.68,WNW,288,0.0,0.0,43,0.00,,,0.00,WeatherCatV1.15B25,2013-07-02 02:04:00,
2013-07-01 19:09:00,96.4,72.2,29.68,WNW,288,0.0,0.0,46,0.00,,,0.00,WeatherCatV1.15B25,2013-07-02 02:09:00,
2013-07-01 19:14:00,95.4,71.9,29.68,WNW,288,0.0,0.0,47,0.00,,,0.00,WeatherCatV1.15B25,2013-07-02 02:14:00,
2013-07-01 19:19:00,94.6,71.2,29.68,WNW,287,0.0,1.0,47,0.00,,,0.00,WeatherCatV1.15B25,2013-07-02 02:19:00,
2013-07-01 19:24:00,94.1,72.0,29.68,WNW,287,0.0,1.0,49,0.00,,,0.00,WeatherCatV1.15B25,2013-07-02 02:24:00,
2013-07-01 19:29:00,93.5,72.0,29.68,WNW,288,0.0,1.0,50,0.00,,,0.00,WeatherCatV1.15B25,2013-07-02 02:29:00,
2013-07-01 19:34:00,93.0,72.7,29.69,WNW,288,0.0,0.0,52,0.00,,,0.00,WeatherCatV1.15B25,2013-07-02 02:34:00,
2013-07-01 19:39:00,92.3,72.1,29.69,WNW,288,1.0,1.0,52,0.00,,,0.00,WeatherCatV1.15B25,2013-07-02 02:39:00,
2013-07-01 19:44:00,91.9,71.1,29.69,WNW,288,0.0,0.0,51,0.00,,,0.00,WeatherCatV1.15B25,2013-07-02 02:44:00,
2013-07-01 19:49:00,91.5,71.3,29.69,WNW,288,1.0,1.0,52,0.00,,,0.00,WeatherCatV1.15B25,2013-07-02 02:49:00,
2013-07-01 19:54:00,91.2,71.1,29.69,WNW,287,0.0,0.0,52,0.00,,,0.00,WeatherCatV1.15B25,2013-07-02 02:54:00,
2013-07-01 19:59:00,90.8,70.7,29.69,WNW,287,0.0,0.0,52,0.00,,,0.00,WeatherCatV1.15B25,2013-07-02 02:59:00,
2013-07-01 20:04:00,90.4,70.3,29.69,WNW,288,0.0,0.0,52,0.00,,,0.00,WeatherCatV1.15B25,2013-07-02 03:04:00,
2013-07-01 20:09:00,90.0,70.0,29.69,WNW,288,0.0,0.0,52,0.00,,,0.00,WeatherCatV1.15B25,2013-07-02 03:09:00,
2013-07-01 20:14:00,89.6,70.7,29.70,WNW,287,0.0,0.0,54,0.00,,,0.00,WeatherCatV1.15B25,2013-07-02 03:14:00,
2013-07-01 20:19:00,89.3,71.5,29.70,WNW,288,0.0,0.0,56,0.00,,,0.00,WeatherCatV1.15B25,2013-07-02 03:19:00,
2013-07-01 20:24:00,88.9,71.7,29.70,WNW,288,0.0,0.0,57,0.00,,,0.00,WeatherCatV1.15B25,2013-07-02 03:24:00,
2013-07-01 20:29:00,88.3,71.6,29.71,WNW,287,0.0,0.0,58,0.00,,,0.00,WeatherCatV1.15B25,2013-07-02 03:29:00,
2013-07-01 20:34:00,87.4,71.8,29.71,WNW,288,0.0,0.0,60,0.00,,,0.00,WeatherCatV1.15B25,2013-07-02 03:34:00,
2013-07-01 20:39:00,86.8,71.2,29.71,WNW,288,0.0,0.0,60,0.00,,,0.00,WeatherCatV1.15B25,2013-07-02 03:39:00,
2013-07-01 20:44:00,86.2,71.1,29.71,WNW,287,0.0,0.0,61,0.00,,,0.00,WeatherCatV1.15B25,2013-07-02 03:44:00,
2013-07-01 20:49:00,85.8,71.2,29.71,WNW,288,0.0,0.0,62,0.00,,,0.00,WeatherCatV1.15B25,2013-07-02 03:49:00,
2013-07-01 20:54:00,85.2,72.1,29.71,WNW,288,0.0,0.0,65,0.00,,,0.00,WeatherCatV1.15B25,2013-07-02 03:54:00,
2013-07-01 20:59:00,84.4,72.2,29.71,WNW,287,0.0,0.0,67,0.00,,,0.00,WeatherCatV1.15B25,2013-07-02 03:59:00,
2013-07-01 21:01:00,84.3,72.1,29.71,WNW,287,0.0,0.0,67,0.00,,,0.00,WeatherCatV1.15B25,2013-07-02 04:01:00,
2013-07-01 21:06:00,83.7,72.4,29.71,WNW,288,0.0,0.0,69,0.00,,,0.00,WeatherCatV1.15B25,2013-07-02 04:06:00,
2013-07-01 21:11:00,83.2,71.5,29.71,WNW,288,0.0,0.0,68,0.00,,,0.00,WeatherCatV1.15B25,2013-07-02 04:11:00,
2013-07-01 21:16:00,82.8,70.7,29.71,WNW,288,0.0,0.0,67,0.00,,,0.00,WeatherCatV1.15B25,2013-07-02 04:16:00,
2013-07-01 21:21:00,82.6,70.5,29.72,WNW,287,0.0,0.0,67,0.00,,,0.00,WeatherCatV1.15B25,2013-07-02 04:21:00,
2013-07-01 21:26:00,82.5,70.4,29.72,WNW,288,0.0,1.0,67,0.00,,,0.00,WeatherCatV1.15B25,2013-07-02 04:26:00,
2013-07-01 21:31:00,82.4,69.9,29.72,WNW,288,0.0,0.0,66,0.00,,,0.00,WeatherCatV1.15B25,2013-07-02 04:31:00,
2013-07-01 21:36:00,82.3,69.3,29.72,WNW,287,0.0,0.0,65,0.00,,,0.00,WeatherCatV1.15B25,2013-07-02 04:36:00,
2013-07-01 21:41:00,82.3,69.8,29.73,WNW,287,0.0,0.0,66,0.00,,,0.00,WeatherCatV1.15B25,2013-07-02 04:41:00,
2013-07-01 21:46:00,82.2,69.7,29.73,WNW,287,0.0,0.0,66,0.00,,,0.00,WeatherCatV1.15B25,2013-07-02 04:46:00,
2013-07-01 21:50:00,82.1,69.6,29.73,WNW,287,0.0,0.0,66,0.00,,,0.00,WeatherCatV1.15B25,2013-07-02 04:50:00,
2013-07-01 21:55:00,81.9,69.0,29.73,WNW,288,0.0,0.0,65,0.00,,,0.00,WeatherCatV1.15B25,2013-07-02 04:55:00,
2013-07-01 22:00:00,81.7,69.6,29.74,WNW,287,0.0,0.0,67,0.00,,,0.00,WeatherCatV1.15B25,2013-07-02 05:00:00,
2013-07-01 22:05:00,81.4,69.4,29.74,WNW,287,0.0,0.0,67,0.00,,,0.00,WeatherCatV1.15B25,2013-07-02 05:05:00,
2013-07-01 22:10:00,81.1,69.1,29.74,WNW,288,0.0,0.0,67,0.00,,,0.00,WeatherCatV1.15B25,2013-07-02 05:10:00,
2013-07-01 22:15:00,80.7,69.1,29.75,WNW,288,0.0,0.0,68,0.00,,,0.00,WeatherCatV1.15B25,2013-07-02 05:15:00,
2013-07-01 22:20:00,80.5,68.9,29.75,WNW,288,0.0,0.0,68,0.00,,,0.00,WeatherCatV1.15B25,2013-07-02 05:20:00,
2013-07-01 22:25:00,80.2,69.5,29.74,WNW,287,0.0,0.0,70,0.00,,,0.00,WeatherCatV1.15B25,2013-07-02 05:25:00,
2013-07-01 22:30:00,80.0,69.7,29.74,WNW,288,0.0,0.0,71,0.00,,,0.00,WeatherCatV1.15B25,2013-07-02 05:30:00,
2013-07-01 22:31:00,80.0,69.7,29.74,WNW,288,0.0,0.0,71,0.00,,,0.00,WeatherCatV1.15B25,2013-07-02 05:31:00,
2013-07-01 22:32:00,80.0,69.7,29.74,WNW,287,0.0,0.0,71,0.00,,,0.00,WeatherCatV1.15B25,2013-07-02 05:32:00,
2013-07-01 22:37:00,79.7,69.4,29.74,WNW,287,0.0,0.0,71,0.00,,,0.00,WeatherCatV1.15B25,2013-07-02 05:37:00,
2013-07-01 22:42:00,79.5,70.1,29.74,WNW,287,0.0,0.0,73,0.00,,,0.00,WeatherCatV1.15B25,2013-07-02 05:42:00,
2013-07-01 22:47:00,79.3,70.3,29.74,East,99,0.0,1.0,74,0.00,,,0.00,WeatherCatV1.15B25,2013-07-02 05:47:00,
2013-07-01 22:52:00,79.1,70.1,29.74,East,99,0.0,0.0,74,0.00,,,0.00,WeatherCatV1.15B25,2013-07-02 05:52:00,
2013-07-01 22:57:00,78.9,69.9,29.74,East,99,0.0,0.0,74,0.00,,,0.00,WeatherCatV1.15B25,2013-07-02 05:57:00,
2013-07-01 23:02:00,78.7,70.1,29.74,East,99,0.0,0.0,75,0.00,,,0.00,WeatherCatV1.15B25,2013-07-02 06:02:00,
2013-07-01 23:07:00,78.6,70.4,29.74,East,99,0.0,0.0,76,0.00,,,0.00,WeatherCatV1.15B25,2013-07-02 06:07:00,
2013-07-01 23:12:00,78.4,70.6,29.74,East,99,0.0,0.0,77,0.00,,,0.00,WeatherCatV1.15B25,2013-07-02 06:12:00,
2013-07-01 23:17:00,78.2,70.0,29.74,East,99,0.0,0.0,76,0.00,,,0.00,WeatherCatV1.15B25,2013-07-02 06:17:00,
2013-07-01 23:22:00,78.0,69.4,29.74,East,99,0.0,0.0,75,0.00,,,0.00,WeatherCatV1.15B25,2013-07-02 06:22:00,
2013-07-01 23:27:00,77.8,69.2,29.74,East,99,0.0,0.0,75,0.00,,,0.00,WeatherCatV1.15B25,2013-07-02 06:27:00,
2013-07-01 23:30:00,77.8,69.2,29.74,East,99,0.0,0.0,75,0.00,,,0.00,WeatherCatV1.15B25,2013-07-02 06:30:00,
2013-07-01 23:35:00,77.7,69.9,29.74,East,99,0.0,0.0,77,0.00,,,0.00,WeatherCatV1.15B25,2013-07-02 06:35:00,
2013-07-01 23:40:00,77.7,70.3,29.74,East,99,0.0,0.0,78,0.00,,,0.00,WeatherCatV1.15B25,2013-07-02 06:40:00,
2013-07-01 23:45:00,77.6,70.2,29.74,East,99,0.0,0.0,78,0.00,,,0.00,WeatherCatV1.15B25,2013-07-02 06:45:00,
2013-07-01 23:50:00,77.5,69.7,29.74,East,99,0.0,0.0,77,0.00,,,0.00,WeatherCatV1.15B25,2013-07-02 06:50:00,
2013-07-01 23:55:00,77.3,69.1,29.74,East,99,0.0,0.0,76,0.00,,,0.00,WeatherCatV1.15B25,2013-07-02 06:55:00,